Somersworth, NH

6:30 AM EST on February 22, 2017 (GMT -0500)
Skyhaven

Weather History for KDAW - August, 2013

Change the Weather History Date:

Thursday, August 1, 2013

  Actual Average (KPSM) Record (KPSM)
Temperature  
Mean Temperature 67 °F -  
Max Temperature 80 °F 78 °F 97 °F (1975)
Min Temperature 55 °F 60 °F 41 °F (1987)
Cooling Degree Days 2    
Growing Degree Days 17 (Base 50)    
Moisture  
Dew Point 61 °F    
Average Humidity 80    
Maximum Humidity 96    
Minimum Humidity 52    
Precipitation  
Precipitation 0.08 in - - ()
Sea Level Pressure  
Sea Level Pressure 29.94 in    
Wind  
Wind Speed 2 mph (SE)    
Max Wind Speed 12 mph    
Max Gust Speed 20 mph    
Visibility 9 miles    
Events Rain    
Averages and records for this station are not official NWS values.
T = Trace of Precipitation, MM = Missing Value Source: NWS Daily Summary

Daily Weather History Graph

Daily Weather History Graph

Search for Another Location

Airport or City:

Trip Planner

Search our weather history database for the weather conditions in past years. The results will help you decide how hot, cold, wet, or windy it might be!

Date:

Astronomy

Aug. 01, 2013 Rise Set
Actual Time 5:34 AM EDT 8:05 PM EDT
Civil Twilight 5:01 AM EDT 8:37 PM EDT
Nautical Twilight 4:21 AM EDT 9:17 PM EDT
Astronomical Twilight 3:35 AM EDT 10:03 PM EDT
Moon 1:07 AM EDT (8/1) 4:12 PM EDT (8/1)
Length of Visible Light 15h 35m
Length of Day
14h 31m
Waning Crescent, 23% of the Moon is Illuminated
Aug 1
Waning Crescent
Aug 6
New
Aug 14
First Quarter
Aug 20
Full
Aug 28
Last Quarter

Hourly Weather History & Observations

Time (EDT) Temp. Dew Point Humidity Pressure Visibility Wind Dir Wind Speed Gust Speed Precip Events Conditions
12:51 AM 62.1 °F 57.9 °F 86% 30.03 in 10.0 mi Calm Calm - N/A   Clear
1:51 AM 62.1 °F 57.9 °F 86% 30.02 in 10.0 mi Calm Calm - N/A   Clear
2:51 AM 59.0 °F 57.0 °F 93% 30.01 in 10.0 mi Calm Calm - N/A   Clear
3:51 AM 59.0 °F 57.0 °F 93% 30.00 in 10.0 mi Calm Calm - N/A   Clear
4:51 AM 57.0 °F 55.9 °F 96% 29.99 in 10.0 mi Calm Calm - N/A   Clear
5:51 AM 55.9 °F 54.0 °F 93% 30.00 in 10.0 mi Calm Calm - N/A   Clear
6:51 AM 60.1 °F 57.9 °F 93% 30.00 in 10.0 mi Calm Calm - N/A   Clear
7:51 AM 64.0 °F 60.1 °F 87% 30.00 in 10.0 mi Calm Calm - N/A   Clear
8:51 AM 69.1 °F 62.1 °F 78% 29.99 in 10.0 mi Calm Calm - N/A   Clear
9:51 AM 75.0 °F 64.0 °F 69% 29.97 in 10.0 mi ESE 3.5 mph - N/A   Partly Cloudy
10:51 AM 77.0 °F 61.0 °F 58% 29.97 in 10.0 mi SE 6.9 mph - N/A   Clear
11:51 AM 78.1 °F 61.0 °F 56% 29.94 in 10.0 mi SE 6.9 mph - N/A   Mostly Cloudy
12:51 PM 79.0 °F 61.0 °F 54% 29.93 in 10.0 mi Variable 5.8 mph - N/A   Scattered Clouds
1:51 PM 79.0 °F 60.1 °F 52% 29.91 in 10.0 mi ESE 11.5 mph 19.6 mph N/A   Partly Cloudy
2:51 PM 77.0 °F 60.1 °F 56% 29.91 in 10.0 mi SE 8.1 mph - N/A   Clear
3:51 PM 75.9 °F 60.1 °F 58% 29.89 in 10.0 mi SE 9.2 mph - N/A   Partly Cloudy
4:51 PM 73.9 °F 62.1 °F 66% 29.90 in 10.0 mi South 4.6 mph - N/A   Overcast
5:51 PM 72.0 °F 63.0 °F 73% 29.90 in 10.0 mi SE 4.6 mph - 0.00 in Rain Light Rain
6:51 PM 69.1 °F 64.9 °F 87% 29.90 in 5.0 mi Calm Calm - 0.00 in Rain Light Rain
7:02 PM 68.0 °F 66.2 °F 94% 29.91 in 1.8 mi Calm Calm - 0.03 in Rain Rain
7:11 PM 68.0 °F 66.2 °F 94% 29.91 in 3.0 mi Calm Calm - 0.03 in Rain Light Rain
7:51 PM 68.0 °F 64.9 °F 90% 29.90 in 8.0 mi Calm Calm - 0.04 in Rain Light Rain
8:51 PM 66.9 °F 64.0 °F 90% 29.90 in 10.0 mi Calm Calm - 0.00 in   Overcast
9:51 PM 66.9 °F 64.0 °F 90% 29.90 in 10.0 mi Calm Calm - N/A   Overcast
10:51 PM 66.0 °F 63.0 °F 90% 29.88 in 9.0 mi Calm Calm - 0.02 in   Overcast
11:24 PM 66.2 °F 62.6 °F 88% 29.89 in 6.0 mi South 3.5 mph - 0.01 in Rain Light Rain
11:51 PM 64.9 °F 63.0 °F 93% 29.87 in 7.0 mi Calm Calm - 0.02 in Rain Light Rain